Location: Little Suamico
(44.7175°N, 88.0093°W)
Time: 08:58:34
(UTC+00:00)

X-37B - Pass Details

Date: 22 April 2021
Orbit: 386 x 389 km, 45.0° (Epoch: 08 May)

Event Time Altitude Azimuth Distance (km) Brightness Sun altitude
Exits shadow 08:46:30 65° 84° (E) 430 0.9 -20.4°
Drops below altitude 10° 08:49:17 10° 83° (E) 1,415 4.2 -20.1°
Sets 08:51:21 0° 83° (E) 2,269 5.4 -19.8°
